TimeEST,TemperatureF,Dew PointF,Humidity,Sea Level PressureIn,VisibilityMPH,Wind Direction,Wind SpeedMPH,Gust SpeedMPH,PrecipitationIn,Events,Conditions,WindDirDegrees,DateUTC
12:15 AM,50.5,41.0,70,30.16,10.0,SW,6.9,-,N/A,,Overcast,220,2013-01-01 05:15:00
12:35 AM,50.7,41.4,70,30.14,10.0,SW,5.8,-,N/A,,Mostly Cloudy,220,2013-01-01 05:35:00
12:55 AM,51.3,41.9,70,30.14,10.0,SW,6.9,-,N/A,,Mostly Cloudy,220,2013-01-01 05:55:00
1:15 AM,52.0,42.6,70,30.11,10.0,SW,9.2,-,N/A,,Overcast,220,2013-01-01 06:15:00
1:35 AM,52.2,42.4,69,30.12,10.0,SW,9.2,-,N/A,,Mostly Cloudy,230,2013-01-01 06:35:00
1:55 AM,52.2,42.6,70,30.11,10.0,SW,10.4,-,N/A,,Mostly Cloudy,220,2013-01-01 06:55:00
2:15 AM,52.3,42.8,70,30.11,10.0,SW,8.1,-,N/A,,Overcast,220,2013-01-01 07:15:00
2:35 AM,52.3,42.8,70,30.10,10.0,SW,6.9,-,N/A,,Overcast,230,2013-01-01 07:35:00
2:55 AM,52.7,43.2,70,30.10,10.0,SW,6.9,-,N/A,,Mostly Cloudy,220,2013-01-01 07:55:00
3:15 AM,53.1,43.3,70,30.09,10.0,SW,8.1,-,N/A,,Mostly Cloudy,230,2013-01-01 08:15:00
3:35 AM,53.1,43.3,70,30.10,10.0,WSW,5.8,-,N/A,,Overcast,240,2013-01-01 08:35:00
3:55 AM,53.1,43.7,71,30.09,10.0,SW,5.8,-,N/A,,Overcast,230,2013-01-01 08:55:00
4:15 AM,53.1,43.9,71,30.07,10.0,South,8.1,-,N/A,,Overcast,190,2013-01-01 09:15:00
4:35 AM,53.1,44.1,71,30.08,10.0,SW,3.5,-,N/A,,Overcast,230,2013-01-01 09:35:00
4:55 AM,53.1,44.2,72,30.08,10.0,SW,6.9,-,N/A,,Overcast,220,2013-01-01 09:55:00
5:15 AM,53.6,44.4,71,30.08,10.0,SW,9.2,-,N/A,,Overcast,220,2013-01-01 10:15:00
5:35 AM,54.1,44.2,69,30.08,10.0,WSW,6.9,-,N/A,,Overcast,240,2013-01-01 10:35:00
5:55 AM,54.1,44.2,69,30.08,10.0,WSW,9.2,-,N/A,,Overcast,240,2013-01-01 10:55:00
6:15 AM,54.0,44.2,70,30.09,10.0,WSW,8.1,-,N/A,,Overcast,240,2013-01-01 11:15:00
6:35 AM,53.8,44.6,71,30.09,10.0,WSW,6.9,-,N/A,,Overcast,240,2013-01-01 11:35:00
6:55 AM,53.2,44.4,72,30.10,10.0,WSW,6.9,-,N/A,,Overcast,250,2013-01-01 11:55:00
7:15 AM,53.1,44.6,73,30.11,10.0,SW,6.9,-,N/A,,Overcast,230,2013-01-01 12:15:00
7:35 AM,52.9,44.6,73,30.11,10.0,SW,8.1,-,N/A,,Overcast,230,2013-01-01 12:35:00
7:55 AM,52.5,44.2,73,30.12,10.0,WSW,6.9,-,N/A,,Overcast,250,2013-01-01 12:55:00
8:15 AM,52.9,44.6,73,30.12,10.0,WSW,5.8,-,N/A,,Overcast,240,2013-01-01 13:15:00
8:35 AM,53.1,44.6,73,30.11,10.0,SW,5.8,-,N/A,,Overcast,230,2013-01-01 13:35:00
8:55 AM,53.2,44.6,72,30.12,10.0,SW,5.8,-,N/A,,Overcast,230,2013-01-01 13:55:00
9:15 AM,54.0,44.6,71,30.12,10.0,SW,4.6,-,N/A,,Overcast,230,2013-01-01 14:15:00
9:35 AM,54.0,44.6,71,30.14,10.0,WSW,4.6,-,N/A,,Overcast,240,2013-01-01 14:35:00
9:55 AM,54.0,44.6,71,30.14,10.0,WSW,5.8,-,N/A,,Overcast,240,2013-01-01 14:55:00
10:15 AM,54.1,44.6,70,30.14,10.0,SW,5.8,-,N/A,,Overcast,230,2013-01-01 15:15:00
10:35 AM,54.9,45.0,69,30.14,10.0,WSW,6.9,-,N/A,,Overcast,250,2013-01-01 15:35:00
10:55 AM,54.9,45.1,70,30.13,10.0,West,5.8,-,N/A,,Overcast,260,2013-01-01 15:55:00
11:15 AM,55.6,45.7,69,30.11,10.0,West,5.8,-,N/A,,Overcast,260,2013-01-01 16:15:00
11:35 AM,55.6,45.7,69,30.11,10.0,West,8.1,-,N/A,,Overcast,280,2013-01-01 16:35:00
11:55 AM,55.6,46.8,72,30.09,10.0,West,9.2,-,N/A,,Overcast,260,2013-01-01 16:55:00
12:15 PM,54.9,48.0,78,30.08,10.0,WSW,6.9,-,N/A,,Overcast,240,2013-01-01 17:15:00
12:35 PM,54.3,48.6,81,30.06,7.0,SW,9.2,-,N/A,,Drizzle,220,2013-01-01 17:35:00
12:55 PM,53.1,49.1,86,30.05,5.0,SW,8.1,-,0.01,Rain,Rain,220,2013-01-01 17:55:00
1:15 PM,52.7,50.2,91,30.04,5.0,SW,9.2,-,0.01,Rain,Rain,220,2013-01-01 18:15:00
1:35 PM,52.7,50.5,92,30.04,5.0,SW,5.8,-,0.01,,Drizzle,230,2013-01-01 18:35:00
1:55 PM,52.2,50.4,94,30.04,4.0,SW,6.9,-,0.01,,Drizzle,220,2013-01-01 18:55:00
2:15 PM,52.2,50.9,95,30.03,5.0,SSW,8.1,-,N/A,,Drizzle,200,2013-01-01 19:15:00
2:35 PM,52.2,50.9,95,30.01,5.0,SW,10.4,-,N/A,,Light Drizzle,220,2013-01-01 19:35:00
2:55 PM,52.2,50.9,95,30.01,7.0,SSW,12.7,17.3,N/A,,Overcast,210,2013-01-01 19:55:00
3:15 PM,53.1,51.4,94,30.00,7.0,SSW,11.5,17.3,N/A,,Overcast,210,2013-01-01 20:15:00
3:35 PM,54.0,52.2,94,30.01,10.0,WSW,8.1,-,N/A,Rain,Light Rain,240,2013-01-01 20:35:00
3:55 PM,53.1,51.4,94,30.01,7.0,SW,5.8,-,N/A,,Overcast,230,2013-01-01 20:55:00
4:15 PM,53.1,51.6,95,30.00,7.0,SW,4.6,-,N/A,,Overcast,220,2013-01-01 21:15:00
4:35 PM,52.9,51.4,95,30.01,5.0,SW,4.6,-,N/A,,Overcast,230,2013-01-01 21:35:00
4:55 PM,52.7,51.4,95,29.99,7.0,SSW,5.8,-,N/A,,Overcast,210,2013-01-01 21:55:00
5:15 PM,52.7,51.4,95,30.00,7.0,SW,5.8,-,N/A,,Overcast,220,2013-01-01 22:15:00
5:35 PM,52.3,51.4,97,30.01,7.0,SW,4.6,-,N/A,,Overcast,220,2013-01-01 22:35:00
5:55 PM,52.7,51.8,97,30.01,7.0,SW,4.6,-,N/A,,Overcast,220,2013-01-01 22:55:00
6:15 PM,52.7,51.8,97,30.01,7.0,WSW,4.6,-,N/A,,Overcast,240,2013-01-01 23:15:00
6:35 PM,52.7,51.4,95,30.01,7.0,SW,4.6,-,N/A,,Overcast,220,2013-01-01 23:35:00
6:55 PM,53.1,52.0,96,30.03,7.0,WSW,3.5,-,N/A,Rain,Light Rain,250,2013-01-01 23:55:00
7:15 PM,53.1,52.2,97,30.02,2.5,West,3.5,-,0.02,,Heavy Drizzle,260,2013-01-02 00:15:00
7:35 PM,53.1,52.7,99,30.02,2.0,Calm,Calm,-,0.03,,Heavy Drizzle,0,2013-01-02 00:35:00
7:55 PM,52.9,52.7,99,30.01,2.0,SW,3.5,-,0.04,,Drizzle,220,2013-01-02 00:55:00
8:15 PM,53.1,53.1,100,30.01,3.0,SW,3.5,-,N/A,,Light Drizzle,230,2013-01-02 01:15:00
8:35 PM,53.1,53.1,100,30.00,3.0,SW,3.5,-,N/A,,Overcast,230,2013-01-02 01:35:00
8:55 PM,53.1,53.1,100,30.00,5.0,Calm,Calm,-,N/A,,Overcast,0,2013-01-02 01:55:00
9:15 PM,53.1,53.1,100,29.99,5.0,Calm,Calm,-,N/A,,Overcast,0,2013-01-02 02:15:00
9:35 PM,52.9,52.9,100,29.99,4.0,Calm,Calm,-,N/A,,Overcast,0,2013-01-02 02:35:00
9:55 PM,52.3,52.3,100,29.98,3.0,Calm,Calm,-,N/A,,Overcast,0,2013-01-02 02:55:00
10:15 PM,52.3,52.3,100,29.99,2.5,SW,3.5,-,N/A,,Overcast,220,2013-01-02 03:15:00
10:35 PM,52.3,52.3,100,29.98,3.0,Calm,Calm,-,N/A,,Overcast,0,2013-01-02 03:35:00
10:55 PM,52.3,52.3,100,29.97,2.5,Calm,Calm,-,N/A,,Light Drizzle,0,2013-01-02 03:55:00
11:15 PM,52.3,52.3,100,29.97,2.0,Calm,Calm,-,N/A,Rain,Light Rain,0,2013-01-02 04:15:00
11:35 PM,52.2,52.2,100,29.96,1.8,Calm,Calm,-,N/A,,Overcast,0,2013-01-02 04:35:00
11:55 PM,52.3,52.3,100,29.94,1.8,Calm,Calm,-,0.01,,Drizzle,0,2013-01-02 04:55:00